Location: Peterborough
(44.3091°N, 78.3197°W)
Time: 22:25:52
(UTC-04:00)

Vanguard 1 - Pass Details

Date: 16 April 2024
Orbit: 652 x 3825 km, 34.2° (Epoch: 29 May)

Event Time Altitude Azimuth Distance (km) Brightness Sun altitude
Rises 08:49:10 0° 256° (WSW) 7,061 13.9 24.4°
Reaches altitude 10° 08:54:43 10° 252° (WSW) 5,577 13.5 25.4°
Maximum altitude 09:08:42 49° 185° (S) 2,174 12.3 27.8°
Drops below altitude 10° 09:16:24 10° 112° (ESE) 3,161 14.3 29.2°
Sets 09:18:41 0° 106° (ESE) 3,859 14.3 29.6°
